This is the latest recevied weather packets stored in our database for station/object ED1ZAI-13. If no packets are shown the sender has not sent any weather packets the latest 10 day(s).
| Time | Temp. | Humidity | Pressure | Rain* | Wind** | Luminosity | Snow |
|---|---|---|---|---|---|---|---|
| 1777720702 | 10.56° C | 88% | 1019.4 hPa | 1.52 mm | - | - | - |
| 1777720102 | 10.56° C | 88% | 1019.5 hPa | 1.52 mm | - | - | - |
| 1777719501 | 10° C | 88% | 1019.9 hPa | 1.52 mm | - | - | - |
| 1777718903 | 11.11° C | 85% | 1019.3 hPa | 2.03 mm | - | - | - |
| 1777718303 | 11.11° C | 84% | 1018.9 hPa | 2.54 mm | - | - | - |
| 1777717702 | 11.67° C | 83% | 1018.6 hPa | 7.11 mm | - | - | - |
| 1777717102 | 12.22° C | 86% | 1018.7 hPa | 7.62 mm | - | - | - |
| 1777716501 | 10° C | 90% | 1019.3 hPa | 7.62 mm | - | - | - |
| 1777715901 | 9.44° C | 90% | 1019.7 hPa | 6.6 mm | - | - | - |
| 1777715301 | 8.89° C | 90% | 1019.9 hPa | 6.1 mm | - | - | - |
| 1777714701 | 9.44° C | 90% | 1020.2 hPa | 5.59 mm | - | - | - |
| 1777713958 | 11.67° C | 84% | 1019.7 hPa | 5.08 mm | - | - | - |
| 1777713360 | 12.22° C | 81% | 1019.1 hPa | 0.51 mm | - | - | - |
| 1777712760 | 12.78° C | 77% | 1018.6 hPa | 0 mm | - | - | - |
| 1777712159 | 13.33° C | 73% | 1018.4 hPa | 0 mm | - | - | - |
| 1777711559 | 15° C | 70% | 1018.3 hPa | 0 mm | - | - | - |
| 1777710959 | 14.44° C | 71% | 1018.2 hPa | 0 mm | - | - | - |
| 1777710359 | 14.44° C | 71% | 1018.3 hPa | 0 mm | - | - | - |
| 1777709759 | 14.44° C | 71% | 1018.2 hPa | 0 mm | - | - | - |
| 1777709158 | 14.44° C | 73% | 1018.2 hPa | 0 mm | - | - | - |
| 1777708560 | 13.89° C | 74% | 1018.4 hPa | 0 mm | - | - | - |
| 1777707960 | 13.89° C | 76% | 1018.5 hPa | 0 mm | - | - | - |
| 1777707359 | 13.33° C | 77% | 1018.7 hPa | 0 mm | - | - | - |
| 1777706759 | 12.78° C | 76% | 1018.7 hPa | 0 mm | - | - | - |
| 1777706159 | 12.78° C | 77% | 1018.8 hPa | 0 mm | - | - | - |
* Rain latest hour (hover to see other rain measurements)
** Current wind speed in m/s (hover to see current wind gust speed)